DELTA 1 DEB, 10661

Orbit data source: Space-Track

DELTA 1 DEB, 10661 is space debris in SSO originally from a launch on Thu, 29 Jul 1976 UTC launched from the Air Force Western Test Range (AFWTR). Debris objects in space refer to the collection of defunct objects orbiting the Earth. Examples of debris include non-operational satellites, rocket bodies, and fragments generated from explosions, collisions, or faulty payload assembly.

Loading next visibility...
Identifier
10661, 1976-077X
Orbit
SSO
Country
Flag of USUS
Related business
Manufacturer
Unknown
Mission
Spacecraft
Bus & Motor
Unknown
Mass
Unknown
Launch date (UTC)
1976-07-29 (50 years ago)
Launch vehicle
Unknown
Launch site
Air Force Western Test Range (AFWTR)
Object type
Payload
Rocket body
Debris
Shape & HBR
Unknown shape, 0.1 m
Radar Cross Section
Small (<0.1 m²)

Expand to show TLE details & history
Last TLE update: 22 hours ago

TLE from 22 hours ago
0 DELTA 1 DEB
1 10661U 76077X   26106.44975907 -.00002891  00000-0 -52619-2 0  9998
2 10661 101.1860  75.5870 0110740 183.2755 301.6378 13.37127587326541
Epoch: 2026-04-16T10:47Z
TLE epoch observation values (Epoch: 2026-04-16T10:47:39.183Z)
Latitude
54.68231°
Longitude
-94.80175°
Altitude
1,085.987 km
Speed
7.335 km/s
True Right ascension
18h 06m 50s
True Declination
54° 31' 37"
Sunlit
Object was in daylight at epoch
Visualization orbit readout
Latitude
Unknown
Longitude
Unknown
Altitude
Unknown
Speed
Unknown
Apparent Right ascension
Unknown
Apparent Declination
Unknown
Sunlit
N/A
Visualization observer readout
Local Sidereal Time
15:58:12
Azimuth
Unknown
Elevation
Unknown
Doppler factor
Unknown
Orbital elements
Apogee altitude
1,200.403 km
Perigee altitude
1,034.392 km
Semi-major axis
7,495.535 km
Eccentricity
0.01107
Inclination
101.186°
RAAN
75.587°
Arg. of periapsis
183.2755°
True anomaly
300.54957°
Mean anomaly
301.6378°
Eccentric anomaly
301.09447°
Mean motion
3.34456 °/min
Orbital period
107.64 mins
BSTAR
-0.0052619
Loading maneuver chart data...
Computing Atmospheric mass density...
Loading historical data...
Loading historical data...
Loading historical data...
Loading historical data...
Loading historical data...
Loading historical data...
Loading historical data...

Documentation

Showing up to 5 results
|